• în România
  • Lista ţărilor
  • Pe 7 zile
  • Temperatura apei
  • Hartă satelitară
  • Meteo pe hartă
  • Widget-uri
  • user-avatar
    Intrare

    Meteo pe oră la Hobart

    Astăzi, 24 Noiembrie, Vineri

    Timp Temperatura Precipitaţii Vânt Presiune Umiditate
    00:00 +14°C° 0,1 mm 1 m/s 746 mmHg 93%
    01:00 +13°C° 0,1 mm 1 m/s 746 mmHg 94%
    02:00 +13°C° 0 mm 1 m/s 746 mmHg 93%
    03:00 +13°C° 0 mm 1 m/s 746 mmHg 93%
    04:00 +13°C° 0 mm 1 m/s 745 mmHg 94%
    05:00 +15°C° 0 mm 1 m/s 746 mmHg 86%
    06:00 +18°C° 0 mm 1 m/s 746 mmHg 79%
    07:00 +20°C° 0 mm 1 m/s 746 mmHg 72%
    08:00 +23°C° 0 mm 1 m/s 746 mmHg 61%
    09:00 +26°C° 0 mm 1 m/s 746 mmHg 51%
    10:00 +29°C° 0 mm 2 m/s 746 mmHg 41%
    11:00 +28°C° 0,3 mm 2 m/s 746 mmHg 50%
    12:00 +26°C° 0,3 mm 3 m/s 746 mmHg 60%
    13:00 +24°C° 0,3 mm 3 m/s 746 mmHg 69%
    14:00 +22°C° 1,1 mm 3 m/s 746 mmHg 74%
    15:00 +21°C° 1,1 mm 2 m/s 746 mmHg 79%
    16:00 +22°C° 1,1 mm 1 m/s 746 mmHg 84%
    17:00 +21°C° 0,5 mm 1 m/s 746 mmHg 87%
    18:00 +20°C° 0,5 mm 1 m/s 746 mmHg 90%
    19:00 +19°C° 0,5 mm 1 m/s 747 mmHg 93%
    20:00 +18°C° 0,1 mm 1 m/s 747 mmHg 95%
    21:00 +16°C° 0,1 mm 1 m/s 747 mmHg 97%
    22:00 +15°C° 0,1 mm 1 m/s 748 mmHg 99%
    23:00 +15°C° 0 mm 1 m/s 747 mmHg 99%

    Mâine, 25 Noiembrie, Sâmbătă

    Timp Temperatura Precipitaţii Vânt Presiune Umiditate
    00:00 +15°C° 0 mm 1 m/s 747 mmHg 99%
    01:00 +15°C° 0 mm 1 m/s 747 mmHg 99%
    02:00 +15°C° 0 mm 1 m/s 747 mmHg 98%
    03:00 +15°C° 0 mm 1 m/s 747 mmHg 98%
    04:00 +15°C° 0 mm 1 m/s 747 mmHg 97%
    05:00 +16°C° 0 mm 1 m/s 747 mmHg 94%
    06:00 +18°C° 0 mm 1 m/s 748 mmHg 91%
    07:00 +19°C° 0 mm 1 m/s 748 mmHg 89%
    08:00 +22°C° 0 mm 1 m/s 748 mmHg 76%
    09:00 +24°C° 0 mm 1 m/s 748 mmHg 64%
    10:00 +27°C° 0 mm 2 m/s 748 mmHg 52%
    11:00 +26°C° 0,6 mm 2 m/s 748 mmHg 60%
    12:00 +25°C° 0,6 mm 2 m/s 748 mmHg 68%
    13:00 +24°C° 0,6 mm 2 m/s 747 mmHg 76%
    14:00 +24°C° 0,7 mm 2 m/s 747 mmHg 77%
    15:00 +24°C° 0,7 mm 2 m/s 747 mmHg 78%
    16:00 +24°C° 0,7 mm 2 m/s 747 mmHg 79%
    17:00 +23°C° 0,3 mm 2 m/s 747 mmHg 84%
    18:00 +21°C° 0,3 mm 2 m/s 747 mmHg 89%
    19:00 +19°C° 0,3 mm 2 m/s 747 mmHg 94%
    20:00 +20°C° 0,1 mm 1 m/s 747 mmHg 95%
    21:00 +19°C° 0,1 mm 1 m/s 747 mmHg 96%
    22:00 +19°C° 0,1 mm 1 m/s 748 mmHg 97%
    23:00 +19°C° 0,2 mm 1 m/s 747 mmHg 97%

    Poimâine, 26 Noiembrie, Duminică

    Timp Temperatura Precipitaţii Vânt Presiune Umiditate
    00:00 +19°C° 0,2 mm 1 m/s 747 mmHg 97%
    01:00 +19°C° 0,2 mm 1 m/s 746 mmHg 97%
    02:00 +18°C° 0,8 mm 1 m/s 746 mmHg 97%
    03:00 +18°C° 0,8 mm 1 m/s 746 mmHg 97%
    04:00 +18°C° 0,8 mm 1 m/s 745 mmHg 97%
    05:00 +18°C° 0,5 mm 1 m/s 745 mmHg 97%
    06:00 +19°C° 0,5 mm 1 m/s 745 mmHg 96%
    07:00 +18°C° 0,5 mm 2 m/s 745 mmHg 96%
    08:00 +20°C° 0,6 mm 2 m/s 745 mmHg 89%
    09:00 +21°C° 0,6 mm 2 m/s 745 mmHg 82%
    10:00 +24°C° 0,6 mm 2 m/s 744 mmHg 76%
    11:00 +24°C° 0,6 mm 3 m/s 744 mmHg 78%
    12:00 +24°C° 0,6 mm 3 m/s 744 mmHg 80%
    13:00 +24°C° 0,6 mm 3 m/s 743 mmHg 82%
    14:00 +24°C° 1 mm 3 m/s 743 mmHg 84%
    15:00 +22°C° 1 mm 3 m/s 743 mmHg 87%
    16:00 +22°C° 1 mm 3 m/s 743 mmHg 89%
    17:00 +21°C° 0,4 mm 2 m/s 744 mmHg 90%
    18:00 +20°C° 0,4 mm 2 m/s 744 mmHg 92%
    19:00 +19°C° 0,4 mm 2 m/s 745 mmHg 93%
    20:00 +19°C° 0,1 mm 2 m/s 745 mmHg 95%
    21:00 +18°C° 0,1 mm 2 m/s 746 mmHg 96%
    22:00 +17°C° 0,1 mm 2 m/s 747 mmHg 98%
    23:00 +17°C° 0,1 mm 2 m/s 747 mmHg 98%

    27 Noiembrie, Luni

    Timp Temperatura Precipitaţii Vânt Presiune Umiditate
    00:00 +17°C° 0,1 mm 2 m/s 747 mmHg 98%
    01:00 +17°C° 0,1 mm 2 m/s 747 mmHg 98%
    02:00 +16°C° 0 mm 2 m/s 747 mmHg 98%
    03:00 +16°C° 0 mm 2 m/s 747 mmHg 99%
    04:00 +16°C° 0 mm 2 m/s 747 mmHg 99%
    05:00 +16°C° 0 mm 3 m/s 748 mmHg 98%
    06:00 +16°C° 0 mm 3 m/s 748 mmHg 98%
    07:00 +16°C° 0 mm 3 m/s 749 mmHg 97%
    08:00 +16°C° 0,1 mm 3 m/s 749 mmHg 96%
    09:00 +16°C° 0,1 mm 3 m/s 749 mmHg 94%
    10:00 +16°C° 0,1 mm 3 m/s 750 mmHg 93%
    11:00 +16°C° 0,1 mm 3 m/s 750 mmHg 92%
    12:00 +17°C° 0,1 mm 2 m/s 750 mmHg 92%
    13:00 +17°C° 0,1 mm 2 m/s 750 mmHg 91%
    14:00 +18°C° 0 mm 2 m/s 750 mmHg 84%
    15:00 +19°C° 0 mm 3 m/s 750 mmHg 78%
    16:00 +20°C° 0 mm 3 m/s 750 mmHg 71%
    17:00 +19°C° 0 mm 3 m/s 750 mmHg 76%
    18:00 +18°C° 0 mm 3 m/s 751 mmHg 80%
    19:00 +17°C° 0 mm 3 m/s 751 mmHg 84%
    20:00 +16°C° 0 mm 2 m/s 751 mmHg 88%
    21:00 +15°C° 0 mm 2 m/s 752 mmHg 91%
    22:00 +14°C° 0 mm 2 m/s 752 mmHg 95%
    23:00 +14°C° 0 mm 1 m/s 752 mmHg 96%

    28 Noiembrie, Marţi

    Timp Temperatura Precipitaţii Vânt Presiune Umiditate
    00:00 +14°C° 0 mm 1 m/s 752 mmHg 97%
    01:00 +13°C° 0 mm 1 m/s 751 mmHg 98%
    02:00 +13°C° 0 mm 1 m/s 751 mmHg 98%
    03:00 +13°C° 0 mm 1 m/s 751 mmHg 97%
    04:00 +13°C° 0 mm 1 m/s 751 mmHg 97%
    05:00 +14°C° 0 mm 1 m/s 751 mmHg 93%
    06:00 +15°C° 0 mm 1 m/s 752 mmHg 89%
    07:00 +16°C° 0 mm 1 m/s 752 mmHg 86%
    08:00 +17°C° 0 mm 2 m/s 752 mmHg 83%
    09:00 +18°C° 0 mm 2 m/s 752 mmHg 81%
    10:00 +19°C° 0 mm 2 m/s 752 mmHg 78%
    11:00 +20°C° 0 mm 2 m/s 752 mmHg 77%
    12:00 +20°C° 0 mm 2 m/s 752 mmHg 75%
    13:00 +21°C° 0 mm 2 m/s 752 mmHg 73%
    14:00 +23°C° 0 mm 2 m/s 752 mmHg 68%
    15:00 +24°C° 0 mm 2 m/s 751 mmHg 63%
    16:00 +25°C° 0 mm 3 m/s 751 mmHg 58%
    17:00 +24°C° 0 mm 3 m/s 751 mmHg 66%
    18:00 +21°C° 0 mm 3 m/s 752 mmHg 74%
    19:00 +20°C° 0 mm 3 m/s 752 mmHg 81%
    20:00 +19°C° 0 mm 2 m/s 752 mmHg 87%
    21:00 +17°C° 0 mm 2 m/s 752 mmHg 93%
    22:00 +16°C° 0 mm 1 m/s 752 mmHg 98%
    23:00 +16°C° 0 mm 1 m/s 752 mmHg 98%

    29 Noiembrie, Miercuri

    Timp Temperatura Precipitaţii Vânt Presiune Umiditate
    00:00 +16°C° 0 mm 1 m/s 751 mmHg 98%
    01:00 +16°C° 0 mm 1 m/s 751 mmHg 98%
    02:00 +16°C° 0 mm 1 m/s 751 mmHg 98%
    03:00 +16°C° 0 mm 1 m/s 751 mmHg 98%
    04:00 +16°C° 0 mm 1 m/s 751 mmHg 98%
    05:00 +18°C° 0 mm 1 m/s 751 mmHg 94%
    06:00 +18°C° 0 mm 2 m/s 751 mmHg 90%
    07:00 +19°C° 0 mm 2 m/s 751 mmHg 86%
    08:00 +23°C° 0 mm 2 m/s 751 mmHg 73%
    09:00 +26°C° 0 mm 2 m/s 751 mmHg 61%
    10:00 +29°C° 0 mm 2 m/s 750 mmHg 48%
    11:00 +30°C° 0 mm 3 m/s 750 mmHg 45%
    12:00 +32°C° 0 mm 4 m/s 749 mmHg 41%
    13:00 +33°C° 0 mm 4 m/s 749 mmHg 37%
    14:00 +33°C° 0 mm 4 m/s 749 mmHg 40%
    15:00 +32°C° 0 mm 5 m/s 748 mmHg 43%
    16:00 +32°C° 0 mm 5 m/s 748 mmHg 46%
    17:00 +29°C° 0 mm 5 m/s 748 mmHg 53%
    18:00 +27°C° 0 mm 4 m/s 748 mmHg 60%
    19:00 +26°C° 0 mm 4 m/s 748 mmHg 68%
    20:00 +23°C° 0 mm 4 m/s 748 mmHg 74%
    21:00 +21°C° 0 mm 4 m/s 748 mmHg 81%
    22:00 +20°C° 0 mm 4 m/s 748 mmHg 87%
    23:00 +19°C° 0 mm 3 m/s 747 mmHg 90%
    Arată mai mult